Hamlin, Kentucky
Current Conditions -  °F | °C
As of 1:35 AM on Wednesday 22 Oct 2014 (Local Time) from KCEY Reporting Station
Clear Clear  
Wind Chill: 44°   Ceiling: Unl
Heat Index: 46°   Visibility: 10mi
Dew Point: 41°   Wind: 6mph
Humidity: 81%   Direction: 50°NE
Pressure: 30.17"   Gusts: NA
Location:  36.6°N, 88.08°W
Report Text: KCEY 220635Z AUTO 05005KT 10SM CLR 08/05 A3017 RMK AO1
Loading
Personal Weather Stations






























Interactive Weather Map
Tropical Storm Tracking
New forecast layout! Learn more

10-Day Weather Forecast

Advertisements
Track Severe Weather on mobile